When you browse on this site, cookies collect data to enhance your experience and personalize the content and advertising you see.
Visit our Privacy Policy to learn more. By continuing to use the site, you agree to this use of cookies and data.
EN

Hourly Weather Punakha

Today, 20 September, Sunday

Time Temperature Precipitation Wind Pressure Humidity
00:00 +20°C° 0 mm 1 mps 585 mmHg 87%
01:00 +19°C° 0.1 mm 1 mps 585 mmHg 86%
02:00 +19°C° 0.1 mm 1 mps 585 mmHg 85%
03:00 +19°C° 0.1 mm 1 mps 584 mmHg 84%
04:00 +19°C° 0 mm 1 mps 585 mmHg 83%
05:00 +18°C° 0 mm 1 mps 585 mmHg 82%
06:00 +18°C° 0 mm 1 mps 585 mmHg 83%
07:00 +21°C° 0 mm 1 mps 586 mmHg 76%
08:00 +23°C° 0 mm 2 mps 587 mmHg 69%
09:00 +26°C° 0 mm 2 mps 588 mmHg 62%
10:00 +27°C° 0.3 mm 2 mps 588 mmHg 59%
11:00 +28°C° 0.3 mm 2 mps 588 mmHg 57%
12:00 +28°C° 0 mm 2 mps 588 mmHg 55%
13:00 +28°C° 0.6 mm 2 mps 587 mmHg 58%
14:00 +27°C° 0.6 mm 2 mps 586 mmHg 60%
15:00 +27°C° 0.6 mm 3 mps 585 mmHg 63%
16:00 +25°C° 0.7 mm 2 mps 584 mmHg 73%
17:00 +23°C° 0.7 mm 1 mps 584 mmHg 83%
18:00 +19°C° 0.7 mm 0 mps 583 mmHg 93%
19:00 +19°C° 0.3 mm 0 mps 583 mmHg 93%
20:00 +18°C° 0.3 mm 0 mps 584 mmHg 92%
21:00 +20°C° 0.3 mm 1 mps 584 mmHg 91%
22:00 +19°C° 0.1 mm 1 mps 584 mmHg 91%
23:00 +19°C° 0.1 mm 1 mps 585 mmHg 91%

Tomorrow, 21 September, Monday

Time Temperature Precipitation Wind Pressure Humidity
00:00 +17°C° 0.1 mm 0 mps 585 mmHg 90%
01:00 +19°C° 0 mm 1 mps 585 mmHg 90%
02:00 +19°C° 0 mm 1 mps 584 mmHg 89%
03:00 +19°C° 0 mm 1 mps 584 mmHg 89%
04:00 +18°C° 0 mm 1 mps 584 mmHg 88%
05:00 +18°C° 0 mm 1 mps 584 mmHg 88%
06:00 +18°C° 0 mm 1 mps 584 mmHg 87%
07:00 +20°C° 0 mm 1 mps 585 mmHg 82%
08:00 +22°C° 0 mm 1 mps 587 mmHg 76%
09:00 +24°C° 0 mm 1 mps 588 mmHg 71%
10:00 +25°C° 0.4 mm 2 mps 587 mmHg 71%
11:00 +25°C° 0.4 mm 2 mps 587 mmHg 70%
12:00 +26°C° 0.4 mm 3 mps 586 mmHg 70%
13:00 +25°C° 0.4 mm 2 mps 586 mmHg 71%
14:00 +25°C° 0.4 mm 2 mps 585 mmHg 72%
15:00 +25°C° 0.4 mm 2 mps 585 mmHg 73%
16:00 +23°C° 0.3 mm 1 mps 584 mmHg 80%
17:00 +22°C° 0.3 mm 1 mps 584 mmHg 86%
18:00 +20°C° 0.3 mm 1 mps 583 mmHg 93%
19:00 +20°C° 0.2 mm 1 mps 584 mmHg 92%
20:00 +18°C° 0.2 mm 0 mps 584 mmHg 92%
21:00 +18°C° 0.2 mm 0 mps 585 mmHg 92%
22:00 +18°C° 0.1 mm 0 mps 585 mmHg 92%
23:00 +18°C° 0.1 mm 0 mps 585 mmHg 92%

Day after tomorrow, 22 September, Tuesday

Time Temperature Precipitation Wind Pressure Humidity
00:00 +18°C° 0.1 mm 0 mps 585 mmHg 92%
01:00 +17°C° 0.1 mm 0 mps 585 mmHg 91%
02:00 +17°C° 0.1 mm 0 mps 585 mmHg 91%
03:00 +17°C° 0.1 mm 0 mps 584 mmHg 90%
04:00 +17°C° 1.2 mm 0 mps 585 mmHg 91%
05:00 +17°C° 1.2 mm 0 mps 585 mmHg 93%
06:00 +17°C° 1.2 mm 0 mps 585 mmHg 94%
07:00 +17°C° 3.4 mm 0 mps 585 mmHg 95%
08:00 +17°C° 3.4 mm 0 mps 586 mmHg 96%
09:00 +17°C° 3.4 mm 0 mps 586 mmHg 97%
10:00 +18°C° 1.2 mm 0 mps 586 mmHg 96%
11:00 +18°C° 1.2 mm 0 mps 586 mmHg 95%
12:00 +18°C° 1.2 mm 0 mps 585 mmHg 94%
13:00 +21°C° 0.2 mm 1 mps 585 mmHg 93%
14:00 +21°C° 0.2 mm 1 mps 585 mmHg 93%
15:00 +20°C° 0.2 mm 2 mps 584 mmHg 93%
16:00 +20°C° 0.3 mm 1 mps 584 mmHg 94%
17:00 +20°C° 0.3 mm 1 mps 584 mmHg 96%
18:00 +17°C° 0.3 mm 0 mps 584 mmHg 98%
19:00 +17°C° 0.1 mm 0 mps 584 mmHg 97%
20:00 +17°C° 0.1 mm 0 mps 585 mmHg 97%
21:00 +16°C° 0.1 mm 0 mps 585 mmHg 97%
22:00 +16°C° 0.5 mm 0 mps 585 mmHg 97%
23:00 +17°C° 0.5 mm 0 mps 585 mmHg 97%

23 September, Wednesday

Time Temperature Precipitation Wind Pressure Humidity
00:00 +17°C° 0.5 mm 0 mps 585 mmHg 97%
01:00 +17°C° 1.2 mm 0 mps 585 mmHg 97%
02:00 +16°C° 1.2 mm 0 mps 584 mmHg 97%
03:00 +16°C° 1.2 mm 0 mps 584 mmHg 97%
04:00 +16°C° 1.3 mm 0 mps 584 mmHg 97%
05:00 +16°C° 1.3 mm 0 mps 584 mmHg 97%
06:00 +16°C° 1.3 mm 0 mps 584 mmHg 98%
07:00 +16°C° 1.9 mm 0 mps 585 mmHg 97%
08:00 +17°C° 1.9 mm 0 mps 585 mmHg 96%
09:00 +19°C° 1.9 mm 1 mps 585 mmHg 96%
10:00 +19°C° 0.6 mm 1 mps 585 mmHg 95%
11:00 +20°C° 0.6 mm 1 mps 585 mmHg 95%
12:00 +20°C° 0.6 mm 1 mps 585 mmHg 94%
13:00 +20°C° 1 mm 1 mps 585 mmHg 96%
14:00 +19°C° 1 mm 1 mps 584 mmHg 97%
15:00 +19°C° 1 mm 1 mps 584 mmHg 98%
16:00 +19°C° 0.9 mm 1 mps 584 mmHg 97%
17:00 +16°C° 0.9 mm 0 mps 584 mmHg 97%
18:00 +16°C° 0.9 mm 0 mps 584 mmHg 97%
19:00 +16°C° 0.1 mm 0 mps 585 mmHg 96%
20:00 +16°C° 0.1 mm 0 mps 585 mmHg 94%
21:00 +17°C° 0.1 mm 0 mps 585 mmHg 93%
22:00 +16°C° 0.2 mm 0 mps 585 mmHg 94%
23:00 +16°C° 0.2 mm 0 mps 585 mmHg 94%

24 September, Thursday

Time Temperature Precipitation Wind Pressure Humidity
00:00 +16°C° 0.2 mm 0 mps 585 mmHg 95%
01:00 +16°C° 0.5 mm 0 mps 585 mmHg 96%
02:00 +16°C° 0.5 mm 0 mps 584 mmHg 96%
03:00 +16°C° 0.5 mm 0 mps 584 mmHg 96%
04:00 +16°C° 0.9 mm 0 mps 584 mmHg 97%
05:00 +16°C° 0.9 mm 0 mps 584 mmHg 97%
06:00 +16°C° 0.9 mm 0 mps 584 mmHg 97%
07:00 +16°C° 1.2 mm 0 mps 585 mmHg 97%
08:00 +17°C° 1.2 mm 0 mps 585 mmHg 96%
09:00 +17°C° 1.2 mm 0 mps 586 mmHg 96%
10:00 +17°C° 1.1 mm 0 mps 586 mmHg 94%
11:00 +20°C° 1.1 mm 1 mps 586 mmHg 92%
12:00 +21°C° 1.1 mm 1 mps 586 mmHg 90%
13:00 +20°C° 0.3 mm 1 mps 585 mmHg 92%
14:00 +18°C° 0.3 mm 0 mps 584 mmHg 95%
15:00 +17°C° 0.3 mm 0 mps 584 mmHg 98%
16:00 +17°C° 0.1 mm 0 mps 584 mmHg 98%
17:00 +17°C° 0.1 mm 0 mps 584 mmHg 98%
18:00 +17°C° 0.1 mm 0 mps 583 mmHg 98%
19:00 +16°C° 0.1 mm 0 mps 584 mmHg 97%
20:00 +16°C° 0.1 mm 0 mps 584 mmHg 96%
21:00 +16°C° 0.1 mm 0 mps 584 mmHg 95%
22:00 +16°C° 0.1 mm 0 mps 584 mmHg 94%
23:00 +16°C° 0.1 mm 0 mps 584 mmHg 94%

25 September, Friday

Time Temperature Precipitation Wind Pressure Humidity
00:00 +16°C° 0.1 mm 0 mps 584 mmHg 93%
01:00 +16°C° 0.1 mm 0 mps 583 mmHg 92%
02:00 +16°C° 0.1 mm 0 mps 583 mmHg 91%
03:00 +16°C° 0.1 mm 0 mps 582 mmHg 90%
04:00 +16°C° 0 mm 0 mps 582 mmHg 90%
05:00 +15°C° 0 mm 0 mps 582 mmHg 90%
06:00 +15°C° 0 mm 0 mps 582 mmHg 90%
07:00 +16°C° 0 mm 0 mps 583 mmHg 89%
08:00 +17°C° 0 mm 0 mps 583 mmHg 87%
09:00 +19°C° 0 mm 0 mps 584 mmHg 85%
10:00 +21°C° 0.2 mm 1 mps 584 mmHg 82%
11:00 +22°C° 0.2 mm 1 mps 584 mmHg 79%
12:00 +23°C° 0.2 mm 2 mps 584 mmHg 76%
13:00 +23°C° 0.2 mm 2 mps 583 mmHg 76%
14:00 +23°C° 0.2 mm 2 mps 583 mmHg 76%
15:00 +24°C° 0.2 mm 2 mps 583 mmHg 76%
16:00 +21°C° 0.4 mm 2 mps 582 mmHg 83%
17:00 +21°C° 0.4 mm 1 mps 582 mmHg 90%
18:00 +19°C° 0.4 mm 1 mps 582 mmHg 97%
19:00 +19°C° 0.5 mm 1 mps 582 mmHg 97%
20:00 +19°C° 0.5 mm 1 mps 583 mmHg 98%
21:00 +17°C° 0.5 mm 0 mps 583 mmHg 98%
22:00 +17°C° 0.1 mm 0 mps 583 mmHg 97%
23:00 +17°C° 0.1 mm 0 mps 583 mmHg 97%
Show more